When you browse on this site, cookies collect data to enhance your experience and personalize the content and advertising you see.
Visit our Privacy Policy to learn more. By continuing to use the site, you agree to this use of cookies and data.
  • In Austria
  • List of Countries
  • For 7 days
  • Water Temperature
  • Satellite Maps
  • Weather Map
  • News
  • Weather Widgets
  • user-avatar
    Login

    Hourly Weather Giumri

    Today, 25 June, Tuesday

    Time Temperature Precipitation Wind Pressure Humidity
    00:00 +16°C° 0.1 mm 2 mps 636 mmHg 81%
    01:00 +16°C° 0 mm 2 mps 636 mmHg 81%
    02:00 +16°C° 0 mm 2 mps 636 mmHg 82%
    03:00 +15°C° 0 mm 2 mps 635 mmHg 83%
    04:00 +16°C° 0 mm 2 mps 636 mmHg 83%
    05:00 +17°C° 0 mm 2 mps 636 mmHg 82%
    06:00 +17°C° 0 mm 2 mps 636 mmHg 82%
    07:00 +19°C° 0 mm 2 mps 637 mmHg 76%
    08:00 +23°C° 0 mm 1 mps 637 mmHg 70%
    09:00 +25°C° 0 mm 1 mps 638 mmHg 64%
    10:00 +26°C° 0.1 mm 2 mps 638 mmHg 59%
    11:00 +27°C° 0.1 mm 2 mps 638 mmHg 54%
    12:00 +29°C° 0.1 mm 2 mps 639 mmHg 48%
    13:00 +29°C° 0.1 mm 2 mps 639 mmHg 49%
    14:00 +29°C° 0.1 mm 3 mps 638 mmHg 49%
    15:00 +29°C° 0.1 mm 4 mps 638 mmHg 50%
    16:00 +28°C° 0.1 mm 3 mps 638 mmHg 55%
    17:00 +27°C° 0.1 mm 3 mps 637 mmHg 61%
    18:00 +26°C° 0.1 mm 3 mps 637 mmHg 67%
    19:00 +22°C° 0 mm 3 mps 637 mmHg 69%
    20:00 +20°C° 0 mm 3 mps 637 mmHg 71%
    21:00 +18°C° 0 mm 3 mps 637 mmHg 73%
    22:00 +18°C° 0 mm 2 mps 636 mmHg 72%
    23:00 +17°C° 0 mm 2 mps 636 mmHg 71%

    Tomorrow, 26 June, Wednesday

    Time Temperature Precipitation Wind Pressure Humidity
    00:00 +17°C° 0 mm 2 mps 636 mmHg 69%
    01:00 +17°C° 0 mm 2 mps 636 mmHg 70%
    02:00 +16°C° 0 mm 2 mps 636 mmHg 70%
    03:00 +16°C° 0 mm 2 mps 636 mmHg 71%
    04:00 +17°C° 0 mm 2 mps 636 mmHg 72%
    05:00 +17°C° 0 mm 2 mps 636 mmHg 73%
    06:00 +18°C° 0 mm 2 mps 637 mmHg 75%
    07:00 +20°C° 0 mm 2 mps 637 mmHg 69%
    08:00 +23°C° 0 mm 2 mps 638 mmHg 63%
    09:00 +25°C° 0 mm 2 mps 638 mmHg 58%
    10:00 +26°C° 0.2 mm 2 mps 638 mmHg 55%
    11:00 +27°C° 0.2 mm 2 mps 638 mmHg 53%
    12:00 +28°C° 0.2 mm 2 mps 638 mmHg 50%
    13:00 +28°C° 0.3 mm 3 mps 638 mmHg 50%
    14:00 +28°C° 0.3 mm 3 mps 638 mmHg 51%
    15:00 +28°C° 0.3 mm 4 mps 638 mmHg 51%
    16:00 +27°C° 0.9 mm 3 mps 637 mmHg 57%
    17:00 +25°C° 0.9 mm 3 mps 636 mmHg 63%
    18:00 +24°C° 0.9 mm 2 mps 636 mmHg 70%
    19:00 +21°C° 0.2 mm 2 mps 636 mmHg 73%
    20:00 +19°C° 0.2 mm 2 mps 636 mmHg 76%
    21:00 +18°C° 0.2 mm 2 mps 635 mmHg 80%
    22:00 +17°C° 0.2 mm 2 mps 635 mmHg 79%
    23:00 +17°C° 0.2 mm 2 mps 635 mmHg 79%

    Day after tomorrow, 27 June, Thursday

    Time Temperature Precipitation Wind Pressure Humidity
    00:00 +16°C° 0.2 mm 2 mps 635 mmHg 78%
    01:00 +16°C° 0.2 mm 2 mps 634 mmHg 78%
    02:00 +15°C° 0.2 mm 2 mps 634 mmHg 78%
    03:00 +15°C° 0.2 mm 2 mps 634 mmHg 78%
    04:00 +16°C° 0 mm 2 mps 634 mmHg 79%
    05:00 +16°C° 0 mm 2 mps 634 mmHg 79%
    06:00 +17°C° 0 mm 2 mps 634 mmHg 79%
    07:00 +18°C° 0.1 mm 2 mps 635 mmHg 74%
    08:00 +20°C° 0.1 mm 2 mps 635 mmHg 70%
    09:00 +23°C° 0.1 mm 2 mps 636 mmHg 65%
    10:00 +24°C° 0.4 mm 2 mps 635 mmHg 62%
    11:00 +25°C° 0.4 mm 2 mps 635 mmHg 60%
    12:00 +26°C° 0.4 mm 2 mps 635 mmHg 57%
    13:00 +26°C° 0.4 mm 3 mps 635 mmHg 58%
    14:00 +26°C° 0.4 mm 3 mps 635 mmHg 58%
    15:00 +26°C° 0.4 mm 4 mps 634 mmHg 58%
    16:00 +25°C° 0.5 mm 4 mps 634 mmHg 64%
    17:00 +23°C° 0.5 mm 4 mps 634 mmHg 69%
    18:00 +22°C° 0.5 mm 3 mps 633 mmHg 74%
    19:00 +21°C° 0.2 mm 3 mps 633 mmHg 77%
    20:00 +19°C° 0.2 mm 2 mps 633 mmHg 79%
    21:00 +18°C° 0.2 mm 2 mps 633 mmHg 82%
    22:00 +17°C° 0 mm 2 mps 632 mmHg 84%
    23:00 +17°C° 0 mm 2 mps 632 mmHg 85%

    28 June, Friday

    Time Temperature Precipitation Wind Pressure Humidity
    00:00 +16°C° 0 mm 2 mps 632 mmHg 86%
    01:00 +15°C° 0 mm 2 mps 631 mmHg 86%
    02:00 +15°C° 0 mm 2 mps 631 mmHg 87%
    03:00 +15°C° 0 mm 2 mps 631 mmHg 87%
    04:00 +15°C° 0.4 mm 2 mps 631 mmHg 87%
    05:00 +15°C° 0.4 mm 2 mps 631 mmHg 87%
    06:00 +15°C° 0.4 mm 2 mps 631 mmHg 87%
    07:00 +17°C° 0.6 mm 2 mps 631 mmHg 83%
    08:00 +18°C° 0.6 mm 2 mps 631 mmHg 79%
    09:00 +20°C° 0.6 mm 3 mps 631 mmHg 75%
    10:00 +21°C° 0.5 mm 3 mps 631 mmHg 71%
    11:00 +22°C° 0.5 mm 3 mps 631 mmHg 68%
    12:00 +24°C° 0.5 mm 3 mps 631 mmHg 64%
    13:00 +24°C° 0.7 mm 3 mps 631 mmHg 63%
    14:00 +23°C° 0.7 mm 4 mps 631 mmHg 62%
    15:00 +25°C° 0.7 mm 4 mps 631 mmHg 61%
    16:00 +22°C° 0.8 mm 4 mps 631 mmHg 67%
    17:00 +21°C° 0.8 mm 3 mps 631 mmHg 73%
    18:00 +20°C° 0.8 mm 3 mps 631 mmHg 79%
    19:00 +19°C° 0.5 mm 2 mps 631 mmHg 81%
    20:00 +18°C° 0.5 mm 2 mps 631 mmHg 83%
    21:00 +18°C° 0.5 mm 1 mps 631 mmHg 85%
    22:00 +18°C° 0.1 mm 1 mps 631 mmHg 85%
    23:00 +16°C° 0.1 mm 1 mps 630 mmHg 85%

    29 June, Saturday

    Time Temperature Precipitation Wind Pressure Humidity
    00:00 +16°C° 0.1 mm 1 mps 630 mmHg 85%
    01:00 +16°C° 0 mm 1 mps 630 mmHg 85%
    02:00 +15°C° 0 mm 1 mps 630 mmHg 85%
    03:00 +15°C° 0 mm 1 mps 630 mmHg 86%
    04:00 +16°C° 0 mm 1 mps 630 mmHg 85%
    05:00 +16°C° 0 mm 1 mps 630 mmHg 84%
    06:00 +16°C° 0 mm 1 mps 630 mmHg 83%
    07:00 +19°C° 0.1 mm 1 mps 630 mmHg 78%
    08:00 +20°C° 0.1 mm 1 mps 630 mmHg 73%
    09:00 +22°C° 0.1 mm 1 mps 631 mmHg 68%
    10:00 +23°C° 0.6 mm 1 mps 631 mmHg 65%
    11:00 +24°C° 0.6 mm 1 mps 631 mmHg 61%
    12:00 +25°C° 0.6 mm 1 mps 631 mmHg 58%
    13:00 +25°C° 1.1 mm 1 mps 631 mmHg 59%
    14:00 +25°C° 1.1 mm 2 mps 630 mmHg 60%
    15:00 +25°C° 1.1 mm 2 mps 630 mmHg 61%
    16:00 +23°C° 2 mm 2 mps 630 mmHg 68%
    17:00 +21°C° 2 mm 3 mps 629 mmHg 74%
    18:00 +20°C° 2 mm 3 mps 629 mmHg 80%
    19:00 +18°C° 2.2 mm 2 mps 629 mmHg 85%
    20:00 +17°C° 2.2 mm 2 mps 629 mmHg 89%
    21:00 +15°C° 2.2 mm 1 mps 630 mmHg 93%
    22:00 +15°C° 0.4 mm 1 mps 630 mmHg 92%
    23:00 +15°C° 0.4 mm 1 mps 630 mmHg 91%

    30 June, Sunday

    Time Temperature Precipitation Wind Pressure Humidity
    00:00 +15°C° 0.4 mm 1 mps 630 mmHg 90%
    01:00 +14°C° 0 mm 1 mps 629 mmHg 90%
    02:00 +14°C° 0 mm 1 mps 629 mmHg 90%
    03:00 +13°C° 0 mm 1 mps 629 mmHg 90%
    04:00 +13°C° 0 mm 1 mps 629 mmHg 89%
    05:00 +14°C° 0 mm 1 mps 629 mmHg 87%
    06:00 +14°C° 0 mm 1 mps 629 mmHg 86%
    07:00 +16°C° 0.1 mm 1 mps 629 mmHg 81%
    08:00 +18°C° 0.1 mm 1 mps 630 mmHg 75%
    09:00 +20°C° 0.1 mm 1 mps 630 mmHg 70%
    10:00 +21°C° 0.4 mm 1 mps 630 mmHg 67%
    11:00 +22°C° 0.4 mm 1 mps 631 mmHg 63%
    12:00 +23°C° 0.4 mm 2 mps 631 mmHg 60%
    13:00 +23°C° 0.6 mm 2 mps 631 mmHg 59%
    14:00 +24°C° 0.6 mm 2 mps 631 mmHg 58%
    15:00 +24°C° 0.6 mm 3 mps 631 mmHg 58%
    16:00 +21°C° 1.3 mm 3 mps 631 mmHg 66%
    17:00 +20°C° 1.3 mm 3 mps 630 mmHg 74%
    18:00 +18°C° 1.3 mm 3 mps 630 mmHg 83%
    19:00 +17°C° 0.3 mm 3 mps 630 mmHg 84%
    20:00 +16°C° 0.3 mm 3 mps 630 mmHg 85%
    21:00 +13°C° 0.3 mm 3 mps 630 mmHg 86%
    22:00 +13°C° 0 mm 3 mps 630 mmHg 86%
    23:00 +13°C° 0 mm 3 mps 630 mmHg 85%
    Show more